Current Version              Previous Version:    01  02  03  04  05  06  07  08  09  10  11  12  13  14  15  16  17  18  19  20  21  22  23  24  25  26  27  28  29  30  
   31  32  33  34  35  36  37  38  39  40  41  42  43  44  45  46  47  48  49  50  51  52  53  54  55  56  57  58  59  60  

[Printable]
196
ASUS44 KEWX 301610
RWRTX
SOUTH TEXAS REGIONAL WEATHER ROUNDUP
NATIONAL WEATHER SERVICE AUSTIN/SAN ANTONIO TX
1100 AM CDT WED JUL 30 2014

NOTE: "FAIR" INDICATED FEW OR NO CLOUDS BELOW 12,000 FEET WITH NO
SIGNIFICANT WEATHER AND/OR OBSTRUCTIONS TO VISIBILITY.

* - THESE STATIONS ARE NOT NWS OR FAA STATIONS...AND ARE NOT SUBJECT
    TO NWS AND FAA QUALITY CONTROL.

TXZ171-172-183>190-301700-
TEXAS HILL COUNTRY AND EDWARDS PLATEAU

CITY           SKY/WX    TMP DP  RH WIND       PRES   REMARKS
JUNCTION       FAIR      88  60  38 S12G21    30.05F
*LLANO         FAIR      88  61  40 SW9       30.08F
BURNET         FAIR      83  64  52 S10       30.09S
*HORSESHOE BAY FAIR      85  62  45 S8        30.06F
*KERRVILLE     FAIR      83  64  50 S10       30.09S
*FREDERICKSBRG FAIR      84  59  43 S9        30.08F
*ROCKSPRINGS   FAIR      84  61  45 S12       30.11F
*BOERNE STAGE  FAIR      82  64  54 S8        30.09F
*CASTROVILLE   FAIR      85  66  51 SE9       30.06F
HONDO          FAIR      83  69  62 VRB3      30.07F
*UVALDE        FAIR      87  69  55 SE6       30.05S HX  92
DEL RIO        FAIR      86  68  54 SE13      30.00F
LAUGHLIN AFB   FAIR      86  67  52 SE10      30.01F
CARRIZO SPRGS  FAIR      88  70  55 S7        30.00S HX  92
$$

TXZ173-191>194-202-209-217>225-228-301700-
CENTRAL AND SOUTH CENTRAL TEXAS

CITY           SKY/WX    TMP DP  RH WIND       PRES   REMARKS
GEORGETOWN     SUNNY     82  70  65 S10       30.06S
AUSTIN/BERGSTM FAIR      85  69  58 S12       30.05S
AUSTIN/MABRY   FAIR      84  70  62 S9        30.07R
*AUSTIN/EXEC   PTSUNNY   84  70  61 S8        30.07S
*LAGO VISTA    FAIR      84  66  54 S6        30.08F
SAN MARCOS     SUNNY     86  66  51 S12       30.07S
NEW BRAUNFELS  FAIR      86  68  54 VRB7      30.05S
RANDOLPH AFB   MOSUNNY   83  69  62 VRB5      30.07S
PT SAN ANTONIO FAIR      84  69  61 S8        30.05S
SAN ANTONIO    PTSUNNY   84  69  60 SW9       30.07S
STINSON FIELD  FAIR      84  69  60 VRB7      30.04F
*PLEASANTON    FAIR      86  67  52 S7        30.05S
*LA GRANGE     PTSUNNY   86  74  68 S7        30.04S HX  93
*GIDDINGS      PTSUNNY   84  70  63 CALM      30.10S
*GONZALES      FAIR      88  71  56 S10G16    30.04F HX  94
$$

TXZ163>164-176>182-195>201-210>213-226-227-235-301700-
SOUTHEAST TEXAS

CITY           SKY/WX    TMP DP  RH WIND       PRES   REMARKS
COLLEGE STN    FAIR      84  72  67 S7        30.07R
*BRYAN         PTSUNNY   84  72  68 S8        30.07R
*CALDWELL      PTSUNNY   84  73  70 SE8       30.09S HX  91
*CROCKETT      FAIR      84  73  70 SE5       30.11S HX  91
*BRENHAM       FAIR      85  72  63 SE7       30.07S HX  91
HUNTSVILLE     FAIR      84  71  65 VRB3      30.08R
CONROE         FAIR      85  73  67 SE7       30.08S HX  91
HOUSTON BUSH   PTSUNNY   87  72  60 VRB6      30.06S HX  93
HOUSTON HOBBY  FAIR      87  72  60 S5        30.06R HX  93
*HOUSTON SW AP PTSUNNY   88  72  58 E3        30.06S HX  94
PEARLAND       FAIR      88  72  58 VRB5      30.07S HX  94
HOUSTON HOOKS  PTSUNNY   84  75  74 SE5       30.06S HX  92
ELLINGTON FLD  PTSUNNY   88  73  62 SE6       30.07R HX  96
SUGAR LAND     FAIR      87  74  64 CALM      30.06S HX  95
*HOUSTON EXEC  FAIR      86  73  66 SE8       30.07S HX  93
*CLEVELAND MUN FAIR      85  74  69 E3        30.09R HX  93
*WHARTON       FAIR      86  74  68 SW6G16    30.06S HX  94
$$

TXZ214>216-236>238-301700-
THE UPPER TEXAS COAST

CITY           SKY/WX    TMP DP  RH WIND       PRES   REMARKS
*ORANGE        FAIR      84  68  58 NE8       30.09S
PORT ARTHUR    FAIR      85  70  60 E12       30.07S
GALVESTON      FAIR      89  71  55 E10       30.06R HX  95
ANGLETON       FAIR      85  75  72 CALM      30.06S HX  93
*BAY CITY      FAIR      89  76  64 SE8       30.05S HX 100
PALACIOS       FAIR      87  74  64 S7        30.05  HX  95
$$

TXZ229>234-239>247-301700-
TEXAS COASTAL BEND AND RIO GRANDE PLAINS

CITY           SKY/WX    TMP DP  RH WIND       PRES   REMARKS
VICTORIA       FAIR      89  72  56 S9G17     30.05S HX  96
*BEEVILLE      FAIR      89  70  54 S9G16     30.03F HX  93
ROCKPORT       FAIR      87  72  60 S8        30.04R HX  93
*PORT ARANSAS  FAIR      85  75  71 S8        30.05R HX  93
*PORT LAVACA   FAIR      88  73  60 SW9       30.05R HX  96
*INGLESIDE     FAIR      88  71  56 S10       30.04S HX  93
CORPUS CHRISTI FAIR      89  69  51 S10       30.03S HX  93
CORPUS NAS     FAIR      88  75  65 S12G21    30.03S HX  97
*ROBSTOWN      NOT AVBL
ALICE          FAIR      89  70  53 S10       30.01F HX  94
KINGSVILLE NAS FAIR      91  72  53 S14       30.02S HX  98
COTULLA        FAIR      88  66  48 S9        30.02S HX  90
*FAITH RANCH   FAIR      84  72  65 S13       30.02S
LAREDO         FAIR      90  71  53 S12       30.03S HX  96
$$

TXZ248>255-301700-
DEEP SOUTH TEXAS

CITY           SKY/WX    TMP DP  RH WIND       PRES   REMARKS
BROWNSVILLE    FAIR      91  72  53 S15G22    30.01F HX  98
PORT ISABEL    FAIR      92  72  51 S15       30.01F HX  99
*SOUTH PADRE   FAIR      88  77  70 SE9       30.02F HX 100
HARLINGEN      FAIR      91  72  53 S16       30.00F HX  98
*HEBBRONVILLE  FAIR      87  67  51 S12G17    30.03S HX  90
MCALLEN        FAIR      90  69  50 S16G25    30.00F HX  94
*WESLACO       NOT AVBL
FALFURRIAS     FAIR      80  64  58 S9G20     30.01S
EDINBURG       FAIR      92  69  47 S13G21    30.01S HX  96
*ZAPATA        NOT AVBL
$$

TXZ213>215-236>238-242>244-246-247-251-254-255-301700-
CMAN STATIONS

STATION/POSITION TIME  TEMP    WIND        PRES    WAVE
                       AIR SEA DIR/SP/G            HT/PER
                 (UTC) (F)     (DEG/KT/KT) (MB)    (FT/S)
SABINE PASS      1600   81 86  110/ 11/ 14 1018.6
SEA RIM ST PARK  1600   83     110/ 11/ 14 1018.9
NORTH JETTY/GLS  1600   85 87  140/ 10/ 11   N/A
EAGLE POINT      1600   85 86  120/  8/ 10 1018.2
MORGANS POINT    1600   86 91  130/  7/ 11 1018.0
MISSION/ARANSAS  1500   82     190/ 11     1018.0
PORT O`CONNOR    1600          210/  8/ 12   N/A
PORT ARANSAS     1600   80 79  160/  3/  4 1018.3
MALAQUITE BEACH  1600   80 75  120/  7/  8 1016.6
BAFFIN BAY       1600   83 81  150/ 11/ 14 1016.8
PORT ISABEL      1600   85 82  140/ 10/ 16 1016.8
$$

GMZ080-GMZ150>470-301700-
OFFSHORE BUOY REPORTS

STATION/POSITION TIME  TEMP    WIND        PRES    WAVE
                       AIR SEA DIR/SP/G            HT/PER
                 (UTC) (F)     (DEG/KT/KT) (MB)    (FT/S)
90 E PT ARANSAS  1600   83 84  200/  6/  6 1018.1    1/ 5
35 NE PT MANSFLD 1600   83 85  160/  8/ 12 1016.9    2/ 4
200 E PT ISABEL  1600   84 87  260/  2/  2 1017.6    1/ 4
$$